Wind_Speed
27 26 26 27 31 29 25 25 24 21 21 25 23 16 26 20 24 25 25 26 26 23 22 20 19 27 30 31 33 40 33 36 34 43 45 49 54 57 59 63 62 60 50 48 44 35 26 15 7
24 24 25 27 31 31 31 25 17 20 24 20 16 19 17 21 26 24 27 27 28 26 26 24 19 27 30 29 33 37 40 39 35 43 44 49 55 59 62 60 53 47 40 38 34 30 20 9 6
23 23 23 23 28 26 25 27 23 19 22 32 31 25 27 26 20 16 18 21 20 24 23 23 25 28 35 32 42 31 39 48 42 51 58 52 58 61 57 47 44 37 32 27 30 28 16 8 6
21 18 19 19 22 28 25 26 28 19 18 22 24 30 26 30 24 21 23 21 26 26 29 29 26 30 34 31 39 37 42 49 45 47 52 56 58 53 43 44 39 29 25 23 31 23 15 10 7
14 12 10 12 18 19 18 19 17 16 15 18 18 20 23 26 28 28 28 33 34 38 40 40 39 42 44 43 45 47 45 49 53 53 51 49 42 40 40 37 30 20 25 27 34 21 15 7 6
16 9 11 12 15 19 21 22 21 19 19 22 23 21 23 25 26 25 28 29 29 33 35 35 33 35 34 39 45 48 51 48 45 41 36 33 36 37 34 31 25 24 29 33 31 19 11 7 9
17 11 4 8 6 17 23 21 29 28 23 21 24 26 26 28 30 32 31 30 30 30 33 36 39 43 44 45 43 41 37 34 30 28 29 32 31 30 28 26 24 29 29 28 27 18 13 8 9
5 4 2 5 10 13 11 15 19 24 22 21 26 32 31 25 32 34 33 33 35 38 39 39 36 35 32 30 28 25 23 24 26 26 26 27 28 25 23 22 24 24 23 24 25 16 12 6 9
4 3 4 5 6 9 10 10 10 7 11 19 21 23 22 20 19 20 22 24 23 22 22 22 22 21 19 18 17 19 22 23 23 23 24 25 25 23 21 19 19 17 14 20 20 17 14 9 9
11 13 5 5 1 4 5 9 9 7 2 3 3 3 5 9 10 11 10 10 9 10 10 11 12 13 15 17 18 19 20 21 21 22 23 25 23 22 14 14 13 13 13 15 18 17 13 10 9
7 7 12 6 10 8 10 11 15 10 1 3 2 0 2 2 3 3 4 6 8 11 12 13 14 16 18 17 16 17 16 18 20 22 23 20 18 17 14 13 13 12 11 12 15 17 13 6 8
7 8 14 13 13 9 11 3 5 6 6 4 3 2 4 6 7 6 6 8 9 11 12 12 12 13 13 13 13 14 17 19 21 20 20 22 19 14 14 16 14 13 13 16 15 16 15 9 5
16 9 14 11 12 11 6 5 4 9 6 10 5 4 6 9 9 8 9 10 11 10 8 7 7 9 11 13 15 16 18 18 18 19 21 19 19 19 18 21 20 15 14 19 17 17 13 13 7
17 12 15 9 6 6 5 7 7 5 4 2 3 6 6 5 6 9 9 9 6 3 3 5 9 11 12 14 14 17 18 17 19 20 20 21 21 20 20 23 26 27 27 28 26 22 20 14 13
23 21 15 12 14 15 13 11 9 13 12 12 10 8 6 7 8 7 8 8 9 9 10 11 12 14 15 15 14 16 18 20 20 21 23 23 25 25 24 23 22 24 26 28 28 24 22 21 20
16 16 18 17 16 14 14 16 14 14 16 15 13 13 12 12 11 12 12 13 12 12 13 14 15 16 16 17 18 19 20 22 24 24 24 23 24 25 25 27 29 29 28 26 24 24 24 26 27
12 13 13 14 18 21 23 23 22 20 20 20 18 17 17 17 16 16 16 15 16 16 16 16 17 17 17 18 19 22 23 24 24 24 25 26 26 27 27 29 32 32 33 32 30 27 25 29 32
9 8 9 10 13 16 17 17 17 17 16 16 15 13 14 14 12 13 13 12 11 12 15 16 17 18 19 21 23 23 25 27 27 27 27 29 31 27 30 30 29 30 33 35 37 36 33 33 33
9 8 4 5 6 9 9 7 10 14 13 13 11 12 12 12 12 14 12 12 13 14 15 16 17 18 19 22 23 25 25 26 29 31 32 33 35 34 37 39 35 33 32 33 35 38 38 38 37
10 9 9 4 3 3 4 1 6 4 11 9 7 9 9 9 11 12 14 15 14 15 17 19 21 22 22 24 25 28 30 31 33 35 36 38 40 39 38 41 38 40 39 36 33 36 39 37 42
11 9 9 11 6 6 2 4 6 4 4 2 4 5 5 7 10 12 13 15 15 16 17 19 21 22 24 24 26 29 31 32 34 36 38 39 41 43 43 45 44 46 47 40 35 34 39 40 40
18 14 12 11 11 11 8 6 5 2 2 3 2 7 7 9 13 15 15 13 14 16 18 22 24 26 27 29 29 29 32 34 37 40 43 45 46 47 48 50 52 53 54 53 45 36 35 38 42
25 21 17 15 17 13 10 11 11 7 7 10 11 10 13 15 16 16 19 19 19 17 19 21 24 27 28 30 32 31 35 39 41 43 46 48 51 53 54 56 55 57 59 57 52 44 36 36 39
33 27 26 21 20 22 14 14 12 13 13 11 15 15 17 16 17 18 23 21 25 20 26 21 27 30 33 34 35 35 38 40 43 43 47 49 52 54 56 58 61 61 64 62 63 56 46 38 39
38 34 33 29 28 25 20 18 20 16 17 14 16 17 21 21 21 21 22 25 25 28 30 30 29 38 37 38 40 38 39 42 44 45 49 52 56 60 62 64 67 68 70 70 69 63 53 44 40
46 43 36 36 33 32 26 25 26 22 23 19 23 24 23 25 26 28 31 31 31 30 22 25 32 40 40 41 43 43 41 47 47 46 50 54 55 59 64 65 67 70 72 73 74 68 60 47 42
48 43 45 44 38 35 33 32 30 28 27 27 31 31 28 30 33 38 41 42 41 36 28 33 37 40 42 42 46 46 49 52 54 51 54 58 57 60 65 67 69 71 73 77 78 71 64 51 42
48 47 47 45 43 41 40 36 34 33 34 33 36 35 31 31 35 37 40 40 42 43 40 38 40 42 44 43 43 46 53 57 57 52 56 61 58 60 64 68 71 72 75 78 78 75 73 57 44
53 49 49 50 47 45 46 42 40 38 40 37 37 40 39 34 37 37 41 40 41 43 45 45 47 45 46 47 44 50 56 59 58 56 58 62 60 64 67 72 72 73 74 76 82 84 74 57 48
58 55 52 52 49 48 47 47 46 43 42 40 40 41 45 45 38 39 40 43 46 49 51 50 49 48 51 50 47 56 62 64 53 58 60 63 65 67 69 74 76 74 75 76 82 93 70 53 47
Wind_Direction
183 189 186 195 200 212 211 219 217 232 226 236 227 213 217 221 231 233 235 239 245 254 244 247 252 256 250 255 265 273 274 278 278 280 283 276 287 298 304 312 314 314 319 320 318 319 320 310 257
187 187 188 192 201 208 219 215 209 215 197 210 214 209 225 234 241 235 241 244 253 252 247 243 261 251 252 270 276 266 273 276 293 288 280 281 305 310 311 311 313 315 320 320 322 318 315 282 228
191 192 197 198 195 199 208 213 225 229 223 226 229 242 253 252 237 247 241 219 247 234 249 258 270 241 245 272 265 274 274 284 279 274 290 308 307 306 306 309 311 314 318 324 331 322 305 252 220
188 195 200 197 202 195 213 232 237 226 234 233 238 240 239 242 246 255 256 244 228 235 242 250 247 259 254 274 278 268 273 279 293 296 298 299 299 300 305 309 307 311 327 322 336 326 304 252 214
177 184 196 216 222 201 202 216 223 223 225 228 235 245 245 249 253 258 260 257 259 261 269 276 265 271 275 274 279 291 293 294 295 296 295 298 297 302 305 301 303 311 327 329 334 325 313 265 200
113 139 184 218 211 215 211 211 202 215 228 244 244 251 255 251 252 250 256 261 265 265 267 278 276 277 281 283 287 286 287 288 292 296 298 298 301 304 302 304 305 321 329 327 330 323 317 244 183
138 134 131 191 224 224 217 223 216 231 244 230 237 248 254 253 256 259 260 257 263 266 270 275 278 280 281 281 283 285 288 292 296 297 300 303 307 306 303 302 311 326 328 334 336 332 319 249 181
149 10 307 158 228 216 234 229 229 235 245 242 249 264 278 261 254 252 259 261 265 270 274 277 279 280 283 285 286 288 293 293 297 301 306 313 312 307 306 307 315 328 340 343 337 342 322 261 185
254 207 300 194 142 186 190 240 215 193 236 245 254 258 266 276 270 270 271 271 274 275 277 280 283 284 286 288 290 295 295 301 305 308 315 316 312 310 304 309 315 327 350 354 346 346 331 296 203
230 255 245 203 93 124 167 122 90 79 355 236 207 265 280 279 275 271 270 268 270 276 285 295 295 292 292 294 298 298 304 309 312 314 315 316 312 311 312 310 327 339 341 8 6 357 341 315 253
136 199 206 193 168 153 145 132 92 81 11 251 118 208 260 273 284 291 285 291 302 297 301 299 300 302 303 305 302 312 318 317 316 316 316 317 314 307 287 303 316 325 341 351 3 2 353 349 277
27 173 243 206 176 158 137 146 142 134 66 100 39 15 340 312 296 282 287 292 298 311 315 313 315 316 319 324 324 321 323 324 320 322 330 324 315 296 278 294 309 314 324 324 331 353 345 350 252
55 85 214 193 208 204 193 163 160 167 227 284 341 342 324 307 293 298 312 315 316 317 328 350 352 340 334 331 334 337 331 319 325 322 322 323 325 311 289 282 282 284 298 316 308 310 310 328 315
43 72 77 105 176 197 196 213 191 193 182 211 23 351 327 325 344 351 2 354 348 343 347 332 329 332 332 334 332 327 327 328 323 323 320 314 313 312 307 291 286 285 282 286 298 298 297 296 299
45 50 61 79 86 90 93 96 117 127 104 84 78 79 70 58 55 36 24 21 12 4 2 357 353 349 346 344 348 352 353 350 344 334 328 318 311 310 308 303 296 295 298 295 292 284 279 280 286
45 50 59 79 87 95 92 92 88 85 89 84 73 73 73 72 71 69 63 53 51 43 44 36 31 24 21 18 13 9 9 6 6 356 347 341 331 320 311 299 294 290 289 294 291 290 278 268 267
38 40 56 64 78 83 85 83 82 78 78 79 75 67 67 68 71 68 69 63 56 57 51 41 32 28 24 15 12 14 13 11 12 8 8 359 350 344 330 311 301 293 287 282 279 276 273 271 266
5 28 46 58 66 70 78 90 93 92 85 82 80 68 48 42 51 66 67 60 44 35 24 24 22 18 13 12 8 6 5 5 6 5 359 359 358 348 348 339 327 313 297 285 281 276 270 270 267
345 333 14 61 74 84 77 61 75 71 58 57 48 51 42 43 36 28 39 39 31 22 19 21 20 16 10 2 359 359 359 356 355 359 2 0 0 357 357 354 347 335 317 302 286 276 270 267 264
306 326 314 321 357 53 79 104 228 65 67 61 64 60 53 43 38 40 31 32 32 24 19 18 20 15 7 3 0 359 1 357 353 352 353 351 352 354 354 356 355 351 341 323 304 285 270 263 266
267 282 299 299 299 287 301 326 342 110 91 39 18 29 32 7 11 5 12 15 11 11 10 5 7 6 2 356 355 354 353 350 351 351 349 348 346 349 349 351 350 351 349 338 319 298 280 264 259
257 251 272 281 278 285 280 279 289 307 291 302 298 348 317 339 358 351 343 349 349 351 353 352 350 351 349 348 345 341 343 346 348 347 348 348 347 346 348 347 347 348 349 344 334 312 290 277 260
256 250 247 249 274 269 278 278 275 284 276 297 309 320 323 283 309 328 324 330 328 335 341 343 340 337 336 336 335 332 338 342 343 344 344 343 344 345 345 344 346 346 345 343 336 323 300 283 272
255 255 254 246 248 259 264 276 273 282 284 284 292 302 299 304 286 307 311 315 327 310 338 324 336 334 331 329 329 330 332 335 337 335 338 339 341 342 342 342 343 343 345 345 342 336 317 293 276
256 256 254 252 251 251 244 256 269 270 271 284 286 288 290 299 302 307 303 308 308 315 310 314 307 325 324 324 324 325 324 328 328 328 331 335 338 341 340 341 341 343 344 342 342 338 328 304 283
250 252 255 256 252 252 251 257 257 264 275 283 281 285 293 301 303 305 302 301 305 310 319 314 311 317 321 323 323 320 319 323 323 325 326 329 333 337 337 339 340 340 341 340 339 337 332 314 290
250 253 253 255 259 259 255 255 261 266 268 271 278 283 286 295 300 298 299 304 307 309 311 312 312 317 319 323 323 318 320 322 321 322 324 326 325 331 335 336 336 339 339 339 337 335 332 323 303
249 250 254 256 257 258 260 259 257 259 263 265 271 275 279 286 288 291 298 304 304 308 312 311 310 313 316 323 316 313 317 316 316 317 320 324 319 324 327 332 334 335 337 338 336 336 331 324 313
252 253 254 254 254 255 258 259 261 259 262 266 269 275 274 273 279 289 294 297 297 301 303 305 305 311 312 318 313 310 313 313 313 316 318 320 316 320 322 327 330 331 335 337 337 334 329 321 316
246 250 254 261 262 261 261 261 259 258 262 265 268 274 278 279 274 280 285 292 295 295 296 299 303 308 311 314 308 309 310 309 311 318 315 318 317 317 320 324 325 326 331 337 335 339 326 320 320
Height
10974 10976 10980 10987 10988 10989 10992 10993 10996 10998 10997 10998 10998 11003 11006 11008 11010 11011 11012 11013 11014 11015 11014 11016 11016 11017 11015 11013 11013 11009 11006 11005 11003 11000 10996 10992 10986 10978 10972 10966 10961 10955 10948 10943 10940 10935 10931 10927 10926
10976 10979 10981 10984 10986 10987 10989 10992 10992 10996 10997 10996 10999 11000 11004 11006 11008 11009 11010 11011 11010 11013 11012 11012 11012 11013 11011 11011 11009 11005 11003 11001 10999 10995 10992 10987 10979 10973 10968 10962 10956 10952 10946 10941 10937 10933 10928 10925 10925
10974 10978 10980 10984 10986 10987 10987 10988 10990 10996 10997 10997 10999 11000 11002 11004 11006 11007 11008 11007 11008 11009 11008 11008 11009 11007 11007 11007 11003 11002 11001 10997 10994 10989 10983 10977 10973 10968 10963 10959 10955 10949 10945 10939 10935 10931 10926 10923 10923
10971 10976 10979 10984 10986 10987 10988 10988 10990 10996 10994 10997 10998 10999 10999 11000 11002 11004 11005 11006 11006 11006 11005 11005 11005 11003 11003 11003 11000 10998 10997 10993 10987 10982 10978 10974 10971 10964 10960 10956 10950 10946 10943 10936 10932 10929 10925 10922 10922
10975 10979 10984 10986 10987 10991 10990 10987 10989 10992 10992 10995 10995 10997 10998 10999 11000 11001 11002 11002 11002 11001 11001 11001 11000 10998 10998 10995 10993 10991 10987 10984 10980 10978 10973 10971 10965 10961 10956 10951 10947 10945 10940 10935 10931 10928 10924 10922 10922
10975 10978 10980 10982 10983 10985 10987 10988 10989 10991 10991 10991 10992 10995 10996 10997 10998 10998 10999 10999 10999 10998 10998 10998 10996 10994 10994 10992 10990 10987 10983 10979 10976 10973 10970 10966 10961 10958 10953 10949 10946 10944 10939 10933 10928 10925 10924 10920 10922
10975 10977 10978 10976 10978 10981 10982 10983 10985 10987 10989 10991 10993 10994 10995 10995 10996 10996 10996 10995 10995 10995 10995 10994 10992 10990 10989 10987 10985 10981 10978 10975 10972 10969 10967 10962 10958 10954 10950 10947 10944 10942 10938 10931 10927 10924 10923 10920 10922
10975 10977 10980 10978 10979 10981 10983 10983 10982 10984 10984 10987 10988 10989 10990 10992 10991 10991 10990 10990 10991 10990 10989 10987 10985 10983 10982 10981 10980 10977 10975 10972 10969 10967 10965 10960 10955 10952 10948 10946 10944 10941 10936 10931 10927 10923 10923 10923 10924
10975 10976 10977 10976 10977 10979 10983 10984 10982 10982 10984 10986 10986 10987 10987 10987 10986 10985 10986 10985 10985 10984 10983 10982 10981 10979 10979 10978 10978 10975 10972 10969 10967 10964 10961 10957 10953 10949 10946 10943 10941 10940 10938 10934 10929 10925 10925 10924 10924
10975 10977 10973 10977 10978 10979 10981 10982 10983 10982 10983 10984 10985 10984 10984 10984 10983 10983 10983 10983 10982 10981 10981 10980 10978 10977 10977 10976 10976 10974 10971 10967 10964 10961 10959 10956 10951 10948 10946 10942 10941 10940 10938 10934 10931 10927 10925 10924 10925
10974 10976 10977 10978 10979 10979 10980 10981 10983 10985 10985 10984 10984 10984 10985 10986 10985 10983 10983 10982 10981 10980 10978 10977 10976 10975 10975 10974 10974 10971 10969 10966 10962 10959 10956 10955 10952 10947 10945 10943 10942 10940 10938 10936 10933 10929 10926 10924 10924
10977 10975 10979 10979 10980 10982 10982 10982 10984 10986 10986 10985 10984 10984 10983 10984 10984 10982 10982 10981 10980 10978 10977 10976 10974 10973 10972 10972 10971 10970 10968 10965 10961 10958 10955 10951 10950 10949 10946 10944 10942 10939 10937 10935 10933 10931 10928 10925 10922
10983 10978 10984 10980 10980 10981 10980 10982 10984 10984 10985 10986 10985 10983 10984 10984 10984 10982 10980 10979 10978 10977 10976 10974 10973 10972 10972 10970 10969 10968 10966 10964 10962 10958 10955 10951 10947 10945 10944 10942 10940 10939 10936 10935 10933 10930 10928 10924 10921
10991 10989 10981 10980 10980 10980 10982 10982 10982 10983 10984 10985 10985 10981 10983 10983 10981 10979 10979 10978 10977 10976 10974 10974 10972 10970 10970 10969 10968 10966 10964 10962 10960 10957 10954 10951 10948 10945 10942 10940 10938 10936 10934 10933 10930 10927 10924 10923 10921
10993 10988 10983 10983 10982 10981 10982 10982 10982 10982 10982 10983 10984 10984 10983 10981 10981 10981 10980 10979 10978 10977 10975 10974 10973 10971 10969 10969 10966 10963 10960 10957 10955 10954 10952 10950 10947 10944 10940 10938 10936 10933 10929 10926 10925 10924 10921 10917 10916
11000 10997 10993 10990 10987 10987 10986 10984 10985 10985 10983 10984 10984 10983 10983 10983 10982 10982 10981 10980 10980 10978 10978 10976 10974 10972 10969 10967 10965 10963 10960 10957 10954 10951 10949 10946 10943 10940 10939 10933 10931 10928 10925 10922 10919 10918 10917 10914 10912
11001 11000 10997 10994 10990 10989 10988 10987 10987 10987 10985 10984 10987 10988 10988 10987 10986 10984 10983 10982 10981 10980 10979 10978 10975 10973 10971 10969 10966 10963 10960 10958 10955 10952 10948 10945 10941 10938 10933 10929 10926 10925 10920 10918 10914 10912 10911 10908 10906
11001 11002 11000 10997 10994 10993 10992 10991 10990 10989 10990 10988 10988 10990 10989 10988 10987 10986 10985 10984 10982 10981 10979 10978 10975 10973 10970 10967 10965 10963 10960 10958 10955 10951 10948 10944 10941 10936 10931 10925 10919 10915 10913 10910 10907 10906 10904 10901 10899
11000 11000 11001 11001 10999 10997 10996 10994 10993 10991 10991 10990 10990 10989 10989 10988 10988 10986 10983 10982 10980 10979 10978 10977 10975 10973 10970 10968 10965 10962 10960 10957 10952 10949 10945 10941 10937 10932 10927 10920 10914 10910 10905 10901 10899 10896 10896 10893 10890
10998 10998 10997 10998 10999 10999 10997 10995 10994 10994 10993 10992 10992 10990 10990 10990 10988 10987 10985 10982 10981 10980 10978 10976 10974 10972 10971 10967 10964 10961 10957 10954 10950 10946 10941 10936 10933 10929 10923 10917 10912 10906 10901 10895 10890 10886 10884 10884 10880
10997 10996 10996 10995 10995 10997 10997 10994 10993 10993 10992 10992 10992 10989 10987 10988 10986 10986 10984 10982 10980 10978 10977 10976 10974 10971 10968 10967 10962 10958 10957 10953 10949 10944 10939 10934 10930 10924 10919 10913 10907 10901 10896 10889 10882 10877 10872 10873 10871
10992 10993 10994 10994 10993 10993 10995 10994 10993 10992 10992 10992 10991 10988 10987 10987 10983 10982 10982 10981 10980 10978 10976 10972 10970 10968 10966 10963 10960 10958 10955 10951 10945 10939 10933 10927 10923 10917 10912 10905 10899 10893 10887 10880 10874 10868 10862 10858 10859
10984 10986 10989 10991 10989 10990 10991 10991 10991 10990 10991 10988 10985 10985 10985 10984 10982 10979 10979 10979 10977 10976 10973 10971 10970 10969 10965 10962 10958 10954 10948 10943 10939 10934 10929 10923 10916 10910 10903 10898 10892 10884 10878 10871 10863 10856 10850 10845 10842
10976 10978 10980 10984 10986 10985 10987 10986 10987 10987 10987 10986 10983 10982 10981 10980 10981 10978 10975 10974 10974 10973 10972 10970 10967 10964 10961 10958 10954 10948 10942 10937 10933 10929 10924 10917 10911 10905 10899 10892 10883 10875 10867 10859 10852 10843 10836 10831 10827
10967 10969 10971 10973 10976 10978 10982 10984 10982 10984 10984 10984 10981 10981 10978 10978 10975 10974 10974 10972 10971 10970 10966 10963 10962 10960 10956 10951 10946 10942 10937 10932 10928 10923 10915 10907 10899 10891 10885 10879 10870 10860 10852 10845 10838 10832 10824 10817 10812
10954 10957 10963 10962 10967 10968 10972 10976 10976 10977 10977 10979 10978 10979 10977 10973 10970 10967 10967 10966 10966 10966 10963 10956 10954 10952 10947 10941 10936 10931 10926 10923 10918 10914 10907 10899 10891 10884 10877 10871 10862 10853 10844 10836 10827 10821 10811 10803 10798
10945 10951 10950 10951 10957 10961 10963 10966 10967 10970 10971 10972 10970 10972 10975 10971 10965 10961 10957 10953 10952 10955 10955 10954 10948 10943 10939 10932 10925 10920 10913 10908 10904 10900 10894 10886 10880 10873 10867 10859 10852 10845 10836 10825 10816 10807 10800 10790 10785
10936 10937 10941 10944 10947 10949 10951 10956 10960 10962 10963 10965 10965 10965 10969 10966 10962 10960 10953 10948 10943 10940 10943 10944 10943 10937 10928 10922 10916 10909 10904 10898 10895 10891 10884 10877 10870 10865 10859 10851 10842 10835 10826 10816 10804 10795 10786 10777 10772
10922 10927 10929 10929 10935 10939 10941 10947 10949 10952 10952 10956 10956 10953 10955 10960 10956 10953 10947 10946 10939 10935 10934 10934 10933 10929 10922 10915 10909 10902 10896 10890 10884 10879 10873 10868 10859 10853 10846 10840 10833 10823 10814 10804 10793 10782 10772 10764 10760
10907 10913 10917 10918 10923 10927 10931 10935 10938 10942 10945 10947 10947 10942 10939 10941 10952 10949 10945 10937 10933 10929 10926 10925 10922 10918 10914 10907 10901 10894 10887 10879 10873 10869 10862 10855 10846 10840 10832 10825 10819 10813 10803 10793 10781 10769 10757 10750 10747